Previsão horária em Cesena

Hoje, 1 Agosto, Domingo

Tempo Temperatura Precipitação Vento Pressão Humidade
00:00 +26°C° 0 mm 3 m/s 750 mmHg 63%
01:00 +26°C° 0 mm 3 m/s 750 mmHg 63%
02:00 +25°C° 0 mm 3 m/s 750 mmHg 66%
03:00 +25°C° 0 mm 2 m/s 750 mmHg 68%
04:00 +25°C° 0 mm 2 m/s 750 mmHg 71%
05:00 +26°C° 0 mm 3 m/s 750 mmHg 70%
06:00 +26°C° 0 mm 3 m/s 750 mmHg 68%
07:00 +27°C° 0 mm 4 m/s 750 mmHg 68%
08:00 +29°C° 0 mm 4 m/s 750 mmHg 61%
09:00 +30°C° 0 mm 5 m/s 750 mmHg 54%
10:00 +33°C° 0 mm 6 m/s 750 mmHg 47%
11:00 +33°C° 0 mm 7 m/s 750 mmHg 46%
12:00 +33°C° 0 mm 8 m/s 750 mmHg 44%
13:00 +34°C° 0 mm 8 m/s 750 mmHg 42%
14:00 +34°C° 0 mm 8 m/s 750 mmHg 38%
15:00 +34°C° 0 mm 9 m/s 750 mmHg 34%
16:00 +34°C° 0 mm 9 m/s 750 mmHg 30%
17:00 +32°C° 0 mm 9 m/s 750 mmHg 33%
18:00 +29°C° 0 mm 8 m/s 751 mmHg 37%
19:00 +27°C° 0 mm 8 m/s 751 mmHg 41%
20:00 +26°C° 0 mm 7 m/s 752 mmHg 46%
21:00 +24°C° 0 mm 6 m/s 752 mmHg 51%
22:00 +22°C° 0 mm 6 m/s 752 mmHg 56%
23:00 +22°C° 0 mm 5 m/s 753 mmHg 59%

Amanhã, 2 Agosto, Segunda-feira

Tempo Temperatura Precipitação Vento Pressão Humidade
00:00 +22°C° 0 mm 5 m/s 753 mmHg 61%
01:00 +21°C° 0 mm 5 m/s 753 mmHg 64%
02:00 +21°C° 0 mm 5 m/s 753 mmHg 66%
03:00 +20°C° 0 mm 5 m/s 754 mmHg 69%
04:00 +20°C° 0 mm 5 m/s 754 mmHg 71%
05:00 +21°C° 0 mm 5 m/s 754 mmHg 66%
06:00 +23°C° 0 mm 5 m/s 755 mmHg 61%
07:00 +25°C° 0 mm 5 m/s 755 mmHg 56%
08:00 +26°C° 0 mm 5 m/s 755 mmHg 49%
09:00 +28°C° 0 mm 5 m/s 756 mmHg 43%
10:00 +30°C° 0 mm 6 m/s 756 mmHg 36%
11:00 +32°C° 0 mm 6 m/s 756 mmHg 32%
12:00 +33°C° 0 mm 6 m/s 755 mmHg 28%
13:00 +34°C° 0 mm 6 m/s 755 mmHg 24%
14:00 +34°C° 0 mm 6 m/s 755 mmHg 25%
15:00 +33°C° 0 mm 6 m/s 755 mmHg 25%
16:00 +33°C° 0 mm 6 m/s 755 mmHg 26%
17:00 +30°C° 0 mm 6 m/s 755 mmHg 29%
18:00 +29°C° 0 mm 5 m/s 755 mmHg 33%
19:00 +27°C° 0 mm 5 m/s 755 mmHg 36%
20:00 +26°C° 0 mm 4 m/s 756 mmHg 41%
21:00 +23°C° 0 mm 4 m/s 756 mmHg 46%
22:00 +22°C° 0 mm 4 m/s 757 mmHg 52%
23:00 +21°C° 0 mm 4 m/s 757 mmHg 56%

Depois de amanhã, 3 Agosto, Terça-feira

Tempo Temperatura Precipitação Vento Pressão Humidade
00:00 +20°C° 0 mm 3 m/s 757 mmHg 60%
01:00 +20°C° 0 mm 3 m/s 757 mmHg 64%
02:00 +19°C° 0 mm 3 m/s 757 mmHg 64%
03:00 +19°C° 0 mm 3 m/s 757 mmHg 65%
04:00 +19°C° 0 mm 3 m/s 757 mmHg 65%
05:00 +21°C° 0 mm 3 m/s 757 mmHg 60%
06:00 +22°C° 0 mm 3 m/s 757 mmHg 54%
07:00 +24°C° 0 mm 2 m/s 758 mmHg 49%
08:00 +27°C° 0 mm 2 m/s 757 mmHg 42%
09:00 +29°C° 0 mm 2 m/s 757 mmHg 35%
10:00 +31°C° 0 mm 2 m/s 757 mmHg 28%
11:00 +33°C° 0 mm 3 m/s 756 mmHg 26%
12:00 +34°C° 0 mm 4 m/s 756 mmHg 24%
13:00 +35°C° 0 mm 5 m/s 755 mmHg 22%
14:00 +35°C° 0 mm 5 m/s 755 mmHg 22%
15:00 +35°C° 0 mm 6 m/s 754 mmHg 22%
16:00 +35°C° 0 mm 6 m/s 754 mmHg 22%
17:00 +34°C° 0 mm 6 m/s 754 mmHg 26%
18:00 +32°C° 0 mm 6 m/s 754 mmHg 29%
19:00 +29°C° 0 mm 6 m/s 754 mmHg 32%
20:00 +28°C° 0 mm 6 m/s 755 mmHg 37%
21:00 +26°C° 0 mm 5 m/s 755 mmHg 42%
22:00 +23°C° 0 mm 5 m/s 756 mmHg 48%
23:00 +23°C° 0 mm 4 m/s 756 mmHg 51%

4 Agosto, Quarta-feira

Tempo Temperatura Precipitação Vento Pressão Humidade
00:00 +22°C° 0 mm 4 m/s 756 mmHg 55%
01:00 +22°C° 0 mm 3 m/s 756 mmHg 58%
02:00 +21°C° 0 mm 3 m/s 756 mmHg 60%
03:00 +21°C° 0 mm 2 m/s 756 mmHg 61%
04:00 +20°C° 0 mm 2 m/s 755 mmHg 63%
05:00 +23°C° 0 mm 2 m/s 755 mmHg 57%
06:00 +24°C° 0 mm 1 m/s 756 mmHg 51%
07:00 +25°C° 0 mm 1 m/s 756 mmHg 45%
08:00 +27°C° 0 mm 1 m/s 755 mmHg 40%
09:00 +29°C° 0 mm 1 m/s 755 mmHg 34%
10:00 +32°C° 0 mm 1 m/s 755 mmHg 29%
11:00 +32°C° 0 mm 2 m/s 755 mmHg 28%
12:00 +34°C° 0 mm 3 m/s 755 mmHg 27%
13:00 +35°C° 0 mm 4 m/s 754 mmHg 26%
14:00 +35°C° 0 mm 4 m/s 754 mmHg 27%
15:00 +35°C° 0 mm 4 m/s 754 mmHg 27%
16:00 +34°C° 0 mm 4 m/s 753 mmHg 28%
17:00 +33°C° 0 mm 3 m/s 753 mmHg 33%
18:00 +30°C° 0 mm 3 m/s 753 mmHg 39%
19:00 +29°C° 0 mm 3 m/s 753 mmHg 44%
20:00 +27°C° 0 mm 3 m/s 754 mmHg 50%
21:00 +26°C° 0 mm 3 m/s 754 mmHg 57%
22:00 +23°C° 0 mm 4 m/s 754 mmHg 63%
23:00 +22°C° 0 mm 3 m/s 754 mmHg 67%

5 Agosto, Quinta-feira

Tempo Temperatura Precipitação Vento Pressão Humidade
00:00 +22°C° 0 mm 3 m/s 754 mmHg 72%
01:00 +21°C° 0 mm 3 m/s 754 mmHg 76%
02:00 +20°C° 0.3 mm 3 m/s 754 mmHg 79%
03:00 +20°C° 0.3 mm 3 m/s 754 mmHg 83%
04:00 +20°C° 0.3 mm 2 m/s 754 mmHg 86%
05:00 +21°C° 0 mm 2 m/s 754 mmHg 83%
06:00 +21°C° 0 mm 2 m/s 754 mmHg 79%
07:00 +23°C° 0 mm 2 m/s 754 mmHg 75%
08:00 +26°C° 0 mm 2 m/s 754 mmHg 64%
09:00 +28°C° 0 mm 3 m/s 754 mmHg 53%
10:00 +30°C° 0 mm 3 m/s 754 mmHg 42%
11:00 +32°C° 0 mm 4 m/s 753 mmHg 39%
12:00 +33°C° 0 mm 4 m/s 753 mmHg 35%
13:00 +34°C° 0 mm 5 m/s 752 mmHg 32%
14:00 +33°C° 0 mm 5 m/s 752 mmHg 30%
15:00 +33°C° 0 mm 6 m/s 752 mmHg 28%
16:00 +33°C° 0 mm 6 m/s 752 mmHg 26%
17:00 +30°C° 0 mm 5 m/s 752 mmHg 31%
18:00 +29°C° 0 mm 5 m/s 752 mmHg 36%
19:00 +27°C° 0 mm 4 m/s 752 mmHg 42%
20:00 +25°C° 0 mm 4 m/s 752 mmHg 50%
21:00 +23°C° 0 mm 4 m/s 752 mmHg 59%
22:00 +21°C° 0 mm 3 m/s 753 mmHg 67%
23:00 +21°C° 0 mm 3 m/s 753 mmHg 71%

6 Agosto, Sexta-feira

Tempo Temperatura Precipitação Vento Pressão Humidade
00:00 +20°C° 0 mm 3 m/s 753 mmHg 75%
01:00 +20°C° 0 mm 3 m/s 753 mmHg 79%
02:00 +20°C° 0 mm 3 m/s 753 mmHg 80%
03:00 +19°C° 0 mm 3 m/s 753 mmHg 81%
04:00 +19°C° 0 mm 3 m/s 753 mmHg 83%
05:00 +21°C° 0 mm 3 m/s 753 mmHg 76%
06:00 +22°C° 0 mm 3 m/s 753 mmHg 70%
07:00 +25°C° 0 mm 2 m/s 754 mmHg 64%
08:00 +27°C° 0 mm 2 m/s 754 mmHg 57%
09:00 +29°C° 0 mm 2 m/s 754 mmHg 49%
10:00 +31°C° 0 mm 2 m/s 754 mmHg 42%
11:00 +31°C° 0 mm 3 m/s 753 mmHg 41%
12:00 +33°C° 0 mm 3 m/s 753 mmHg 41%
13:00 +33°C° 0 mm 4 m/s 753 mmHg 41%
14:00 +31°C° 0 mm 3 m/s 753 mmHg 43%
15:00 +31°C° 0 mm 3 m/s 753 mmHg 45%
16:00 +31°C° 0 mm 3 m/s 753 mmHg 47%
17:00 +30°C° 0 mm 3 m/s 753 mmHg 50%
18:00 +28°C° 0 mm 3 m/s 753 mmHg 54%
19:00 +27°C° 0 mm 2 m/s 753 mmHg 58%
20:00 +26°C° 0 mm 2 m/s 753 mmHg 62%
21:00 +25°C° 0 mm 2 m/s 754 mmHg 65%
22:00 +24°C° 0 mm 2 m/s 754 mmHg 69%
23:00 +23°C° 0 mm 2 m/s 754 mmHg 69%
Mostrar mais

Necessitamos do seu Consentimento

A Meteoprog e os seus Fornecedores de Serviços podem armazenar e aceder a dados pessoais como cookies, identificadores do dispositivo ou outras tecnologias semelhantes existentes no seu dispositivo e processar estes dados para personalizar conteúdos e anúncios, assim como funcionalidades nas redes sociais e análise de tráfego.

  • Armazenar e/ou aceder a informações no seu dispositivo

    Os cookies, identificadores do dispositivo ou outras informações podem ser armazenados ou acedidos no seu dispositivo, para os fins acima indicados.

  • Anúncios e conteúdos personalizados, medição de anúncios e conteúdos, dados sobre o público-alvo e desenvolvimento de produtos

    Os anúncios e os conteúdos podem ser personalizados com base num perfil. Podem ser adicionados dados adicionais para uma maior personalização dos anúncios e dos conteúdos. A eficácia dos anúncios e dos conteúdos pode ser medida. Podem ser obtidas informações sobre o público que visualizou os anúncios e os conteúdos. Estes dados podem ser usados para desenvolver ou melhorar sistemas, softwares ou a experiência do utilizador.

Ao clicar em "Eu concordo”, permitirá o uso de cookies, identificadores do dispositivo e web beacons mencionados ou outras tecnologias semelhantes. As configurações do navegador do seu dispositivo podem ser alteradas.

Para certos fins, podem ser invocados interesses legítimos ao invés de consentimento. Pode ler mais informação sobre este assunto na nossa Política de Privacidade e Cookies.